TimeCDT,TemperatureF,Dew PointF,Humidity,Sea Level PressureIn,VisibilityMPH,Wind Direction,Wind SpeedMPH,Gust SpeedMPH,PrecipitationIn,Events,Conditions,WindDirDegrees,DateUTC
12:15 AM,47.5,37.9,69,30.10,10.0,Calm,Calm,-,N/A,,Clear,0,2012-10-10 05:15:00
12:55 AM,44.6,38.3,79,30.11,10.0,Calm,Calm,-,N/A,,Clear,0,2012-10-10 05:55:00
1:15 AM,45.1,38.1,76,30.12,10.0,West,3.5,-,N/A,,Clear,270,2012-10-10 06:15:00
1:35 AM,45.0,38.1,77,30.12,10.0,NW,3.5,-,N/A,,Clear,310,2012-10-10 06:35:00
1:55 AM,44.6,37.2,75,30.13,10.0,NW,6.9,-,N/A,,Clear,320,2012-10-10 06:55:00
2:15 AM,45.0,35.4,69,30.15,10.0,NW,3.5,-,N/A,,Clear,320,2012-10-10 07:15:00
2:35 AM,44.4,34.5,68,30.15,10.0,Calm,Calm,-,N/A,,Clear,0,2012-10-10 07:35:00
2:55 AM,43.5,34.7,71,30.15,10.0,Calm,Calm,-,N/A,,Clear,0,2012-10-10 07:55:00
3:15 AM,42.8,34.7,73,30.16,10.0,Calm,Calm,-,N/A,,Clear,0,2012-10-10 08:15:00
3:35 AM,42.1,34.2,74,30.16,10.0,Calm,Calm,-,N/A,,Clear,0,2012-10-10 08:35:00
3:55 AM,41.9,33.3,71,30.17,10.0,Calm,Calm,-,N/A,,Clear,0,2012-10-10 08:55:00
4:15 AM,41.2,32.9,72,30.18,10.0,Calm,Calm,-,N/A,,Clear,0,2012-10-10 09:15:00
4:35 AM,40.6,32.7,73,30.18,10.0,West,3.5,-,N/A,,Clear,280,2012-10-10 09:35:00
4:55 AM,40.6,32.0,71,30.18,10.0,NW,3.5,-,N/A,,Clear,310,2012-10-10 09:55:00
5:15 AM,40.3,32.0,72,30.19,10.0,Calm,Calm,-,N/A,,Clear,0,2012-10-10 10:15:00
5:35 AM,40.1,32.0,73,30.19,10.0,Calm,Calm,-,N/A,,Clear,0,2012-10-10 10:35:00
5:55 AM,38.8,32.2,77,30.20,10.0,Calm,Calm,-,N/A,,Clear,0,2012-10-10 10:55:00
6:15 AM,36.1,33.4,90,30.21,10.0,SW,3.5,-,N/A,,Clear,230,2012-10-10 11:15:00
6:35 AM,35.6,34.0,94,30.22,10.0,Calm,Calm,-,N/A,,Clear,0,2012-10-10 11:35:00
6:55 AM,35.1,33.8,95,30.23,10.0,Calm,Calm,-,N/A,,Clear,0,2012-10-10 11:55:00
7:15 AM,34.7,33.4,95,30.23,10.0,Calm,Calm,-,N/A,,Clear,0,2012-10-10 12:15:00
7:35 AM,34.5,33.4,96,30.23,10.0,Calm,Calm,-,N/A,,Clear,0,2012-10-10 12:35:00
7:55 AM,35.6,33.4,92,30.24,10.0,Calm,Calm,-,N/A,,Clear,0,2012-10-10 12:55:00
8:15 AM,36.5,34.0,91,30.26,10.0,Calm,Calm,-,N/A,,Clear,0,2012-10-10 13:15:00
8:35 AM,38.7,34.7,86,30.26,10.0,Calm,Calm,-,N/A,,Clear,0,2012-10-10 13:35:00
8:55 AM,41.9,33.8,73,30.28,10.0,NW,3.5,-,N/A,,Clear,310,2012-10-10 13:55:00
9:15 AM,44.1,32.9,65,30.28,10.0,West,3.5,-,N/A,,Scattered Clouds,280,2012-10-10 14:15:00
9:35 AM,45.5,32.4,60,30.29,10.0,WSW,3.5,-,N/A,,Clear,250,2012-10-10 14:35:00
9:55 AM,46.4,32.2,58,30.29,10.0,Calm,Calm,-,N/A,,Clear,0,2012-10-10 14:55:00
10:15 AM,47.7,32.5,56,30.30,10.0,Calm,Calm,-,N/A,,Clear,0,2012-10-10 15:15:00
10:35 AM,48.9,32.0,52,30.30,10.0,West,4.6,-,N/A,,Clear,280,2012-10-10 15:35:00
10:55 AM,50.0,29.5,45,30.30,10.0,West,4.6,-,N/A,,Clear,280,2012-10-10 15:55:00
11:15 AM,50.7,28.4,42,30.30,10.0,NW,4.6,-,N/A,,Clear,310,2012-10-10 16:15:00
11:35 AM,51.8,29.3,42,30.30,10.0,Calm,Calm,-,N/A,,Clear,0,2012-10-10 16:35:00
11:55 AM,52.3,29.8,42,30.30,10.0,Calm,Calm,-,N/A,,Clear,0,2012-10-10 16:55:00
12:15 PM,53.4,31.1,43,30.30,10.0,NW,4.6,-,N/A,,Clear,310,2012-10-10 17:15:00
12:35 PM,54.0,28.6,38,30.29,10.0,Calm,Calm,-,N/A,,Clear,0,2012-10-10 17:35:00
12:55 PM,54.5,29.1,38,30.28,10.0,West,8.1,-,N/A,,Clear,260,2012-10-10 17:55:00
1:15 PM,55.2,28.0,35,30.27,10.0,WNW,9.2,-,N/A,,Clear,300,2012-10-10 18:15:00
1:35 PM,55.6,27.9,35,30.26,10.0,North,3.5,-,N/A,,Clear,350,2012-10-10 18:35:00
1:55 PM,55.9,28.6,35,30.25,10.0,West,5.8,-,N/A,,Clear,270,2012-10-10 18:55:00
2:15 PM,56.8,29.7,35,30.24,10.0,WSW,8.1,-,N/A,,Clear,250,2012-10-10 19:15:00
2:35 PM,57.0,27.5,32,30.23,10.0,West,5.8,-,N/A,,Clear,260,2012-10-10 19:35:00
2:55 PM,57.7,27.9,32,30.23,10.0,NNW,3.5,-,N/A,,Clear,330,2012-10-10 19:55:00
3:15 PM,57.9,28.0,32,30.22,10.0,Calm,Calm,-,N/A,,Clear,0,2012-10-10 20:15:00
3:35 PM,58.6,28.2,31,30.22,10.0,NNW,6.9,-,N/A,,Clear,330,2012-10-10 20:35:00
3:55 PM,58.5,26.8,30,30.21,10.0,WNW,4.6,-,N/A,,Clear,290,2012-10-10 20:55:00
4:15 PM,58.6,27.1,30,30.20,10.0,WSW,5.8,-,N/A,,Clear,250,2012-10-10 21:15:00
4:35 PM,58.8,27.7,31,30.20,10.0,Calm,Calm,-,N/A,,Clear,0,2012-10-10 21:35:00
4:55 PM,58.8,28.2,31,30.19,10.0,Calm,Calm,-,N/A,,Clear,0,2012-10-10 21:55:00
5:15 PM,58.6,28.4,32,30.19,10.0,South,6.9,-,N/A,,Clear,180,2012-10-10 22:15:00
5:35 PM,58.1,28.0,32,30.18,10.0,SSW,3.5,-,N/A,,Clear,200,2012-10-10 22:35:00
5:55 PM,57.9,27.5,31,30.18,10.0,Calm,Calm,-,N/A,,Clear,0,2012-10-10 22:55:00
6:15 PM,57.0,27.5,32,30.18,10.0,Calm,Calm,-,N/A,,Clear,0,2012-10-10 23:15:00
6:35 PM,54.7,29.8,39,30.18,10.0,Calm,Calm,-,N/A,,Clear,0,2012-10-10 23:35:00
6:55 PM,52.3,31.1,44,30.18,10.0,SSE,4.6,-,N/A,,Clear,150,2012-10-10 23:55:00
7:15 PM,50.5,31.8,49,30.18,10.0,SE,4.6,-,N/A,,Clear,130,2012-10-11 00:15:00
7:35 PM,48.6,32.0,53,30.18,10.0,SE,5.8,-,N/A,,Clear,140,2012-10-11 00:35:00
7:55 PM,46.4,32.4,58,30.18,10.0,SE,4.6,-,N/A,,Clear,140,2012-10-11 00:55:00
8:15 PM,46.0,32.4,59,30.18,10.0,SE,4.6,-,N/A,,Clear,140,2012-10-11 01:15:00
8:35 PM,45.5,32.4,60,30.18,10.0,SE,3.5,-,N/A,,Clear,140,2012-10-11 01:35:00
8:55 PM,44.2,32.7,64,30.18,10.0,SE,4.6,-,N/A,,Clear,140,2012-10-11 01:55:00
9:15 PM,43.3,32.9,67,30.18,10.0,SE,4.6,-,N/A,,Clear,140,2012-10-11 02:15:00
9:55 PM,42.8,32.5,67,30.18,10.0,SE,4.6,-,N/A,,Clear,140,2012-10-11 02:55:00
10:15 PM,42.4,32.4,68,30.19,10.0,SSE,3.5,-,N/A,,Clear,150,2012-10-11 03:15:00
10:35 PM,42.4,32.2,67,30.19,10.0,SSE,3.5,-,N/A,,Clear,160,2012-10-11 03:35:00
10:55 PM,41.9,32.0,68,30.19,10.0,Calm,Calm,-,N/A,,Clear,0,2012-10-11 03:55:00
11:15 PM,42.3,32.0,67,30.19,10.0,SSE,3.5,-,N/A,,Clear,160,2012-10-11 04:15:00
11:35 PM,41.7,32.0,68,30.19,10.0,SSE,3.5,-,N/A,,Clear,160,2012-10-11 04:35:00
11:55 PM,41.5,32.0,69,30.18,10.0,SSE,4.6,-,N/A,,Clear,150,2012-10-11 04:55:00